Location: Wapato
(46.4478°N, 120.4212°W)
Time: 14:28:44
(UTC+00:00)

Explorer 7 - Pass Details

Date: 12 May 2026
Orbit: 426 x 534 km, 50.2° (Epoch: 8 June)

Event Time Altitude Azimuth Distance (km) Brightness Sun altitude
Rises 20:34:33 0° 287° (WNW) 2,618 10.3 60.9°
Reaches altitude 10° 20:37:05 10° 272° (W) 1,747 9.6 60.7°
Maximum altitude 20:40:09 22° 221° (SW) 1,196 9.4 60.5°
Drops below altitude 10° 20:43:16 10° 171° (S) 1,771 10.0 60.4°
Sets 20:45:52 0° 156° (SSE) 2,666 10.6 60.2°
